Preview of NWS' New Version of Forecast
This preview is not operational and should not be used for support decisions.

Regional Weather Roundup (RWR)

Issued by Gray - Portland, ME (GYX)

                            
000
ASUS41 KGYX 180010
RWRGYX
WEATHER ROUNDUP FOR MAINE AND NEW HAMPSHIRE
NATIONAL WEATHER SERVICE GRAY ME
800 PM EDT SAT AUG 17 2019

MEZ002-005-006-010-012-015-018-020-021-024-026-027-029-180100-
MAINE
  
CITY           SKY/WX    TMP DP  RH WIND       PRES   REMARKS
PORTLAND       CLOUDY    68  65  90 SE3       30.04R                  
6HR MIN TEMP:  68; 6HR MAX TEMP:  70;                                

SANFORD        CLOUDY    67  66  97 VRB3      30.03S                  
BAR HARBOR     MOCLDY    63  62  97 S8        30.07S                  
WISCASSET      CLOUDY    66  63  90 SE3       30.06S                  
6HR MIN TEMP:  66; 6HR MAX TEMP:  68;                                

ROCKLAND       CLOUDY    62  62 100 SE5       30.06R FOG              
FRYEBURG       CLOUDY    68  65  90 SE6       30.04S                  
6HR MIN TEMP:  68; 6HR MAX TEMP:  71; 6HR PCP: TRACE;                

LEWISTONAUBURN CLOUDY    66  65  96 S5        30.05S                  
AUGUSTA        CLOUDY    66  63  90 S6        30.06R                  
6HR MIN TEMP:  66; 6HR MAX TEMP:  68;                                

WATERVILLE     CLOUDY    65  63  93 CALM      30.03S                  
BANGOR         CLOUDY    67  61  81 S7        30.06S                  
6HR MIN TEMP:  67; 6HR MAX TEMP:  72;                                

GREENVILLE       N/A     63  62  97 VRB5      30.04R                  
6HR MIN TEMP:  61; 6HR MAX TEMP:  63;                                

MILLINOCKET    CLOUDY    66  62  87 CALM      30.06R                  
6HR MIN TEMP:  63; 6HR MAX TEMP:  69;                                

HOULTON        LGT RAIN  65  62  90 S6        30.03S FOG              
6HR MIN TEMP:  65; 6HR MAX TEMP:  70; 6HR PCP:  0.02;                

PRESQUE ISLE   CLOUDY    66  62  87 S3        30.04S                  
6HR MIN TEMP:  66; 6HR MAX TEMP:  69;                                

FRENCHVILLE    CLOUDY    63  59  87 S7        30.03R                  
6HR MIN TEMP:  63; 6HR MAX TEMP:  66;                                

CARIBOU        CLOUDY    66  60  81 S3        30.02F                  
6HR MIN TEMP:  65; 6HR MAX TEMP:  70; 6HR PCP: TRACE;                

$$

NHZ002-005-008-009-011-012-014-180100-
NEW HAMPSHIRE
  
CITY           SKY/WX    TMP DP  RH WIND       PRES   REMARKS
PORTSMOUTH     CLOUDY    67  66  95 E6        30.00S                  
ROCHESTER      CLOUDY    68  65  90 SE5       30.02R                  
6HR MIN TEMP:  68; 6HR MAX TEMP:  72;                                

NASHUA         CLOUDY    75  71  87 SE9       29.99F                  
MANCHESTER     MOCLDY    74  69  85 E8        29.97F                  
6HR MIN TEMP:  74; 6HR MAX TEMP:  82;                                

CONCORD        MOCLDY    70  67  90 SE7       29.99F                  
6HR MIN TEMP:  70; 6HR MAX TEMP:  79;                                

LACONIA        LGT RAIN  69  67  93 NE6       30.01F                  
PLYMOUTH       CLOUDY    70  66  86 CALM      30.01R                  
BERLIN         CLOUDY    69  64  84 CALM      30.02S                  
6HR MIN TEMP:  69; 6HR MAX TEMP:  80;                                

WHITEFIELD     TSTM      68  65  90 CALM      30.01S FOG              
6HR MIN TEMP:  68; 6HR MAX TEMP:  82; 6HR PCP:  0.26;                

JAFFREY        LGT RAIN  73  70  90 CALM      30.01S                  
6HR MIN TEMP:  73; 6HR MAX TEMP:  82; 6HR PCP:  0.18;                

KEENE          CLOUDY    77  70  79 VRB5      29.96S THUNDER          
LEBANON        TSTM      69  65  86 E3        29.99R FOG              
6HR MIN TEMP:  69; 6HR MAX TEMP:  87; 6HR PCP:  0.44;                

MT WASHINGTON  FOG       54  54 100 SW22G31     N/A  VSB 1/16         
6HR MIN TEMP:  53; 6HR MAX TEMP:  55;                                

$$

VTZ005-007-008-180100-
VERMONT
  
CITY           SKY/WX    TMP DP  RH WIND       PRES   REMARKS
ST JOHNSBURY     N/A     69  69 100 MISG      29.97S                  
MONTPELIER     RAIN      66  65  96 SE8       30.02F                  
BURLINGTON     MOCLDY    69  65  86 S5        29.93F                  
$$

MAZ007-012-024-CTZ003-RIZ002-NYZ038-NYZ072-180100-
SOUTHERN NEW ENGLAND AND NY
  
CITY           SKY/WX    TMP DP  RH WIND       PRES   REMARKS
BOSTON         MOCLDY    70  65  84 E13       29.99S                  
WORCESTER      FAIR      73  69  87 S8        30.01F                  
NANTUCKET      FAIR      69  67  93 E7        29.99R                  
PROVIDENCE     CLOUDY    75  72  90 SE6       30.00R                  
HARTFORD       MOCLDY    78  70  76 S8        29.96S                  
ALBANY         LGT RAIN  70  66  87 SE3       29.97F                  
NEW YORK CITY  MOCLDY    80  70  71 S10       29.96R                  
$$

ANZ081-ANZ082-ANZ150-NHZ014-MEZ023>029-180100-
COASTAL MARINE OBSERVATIONS
  
STATION/POSITION TIME  TEMP    WIND        PRES    WAVE
                       AIR SEA DIR/SP/G            HT/PER
                 (UTC) (F)     (DEG/KT/KT) (MB)    (FT/S)
MATINICUS ROCK   2350   61                 1017.3R
ISLE OF SHOALS   2300   66     110/  7/  7 1015.9R
JEFFREYS LEDGE   2338      67                N/A     3/ 7
CASHES LEDGE BUO 2350   65 65  100/  4/  6 1017.7R   3/ 7
GEORGES BANK BUO 2350   72 70   90/  8/ 12 1017.3F   3/ 7
$$

.............KEY..............
   WCI - WIND CHILL
   TC  - TEMPERATURE IN CELSIUS
   VSB - VISIBILITY IN MILES
   HX  - HEAT INDEX
   FAIR- INDICATES FEW OR NO CLOUDS BELOW 12,000 FT, WITH NO 
         SIGNIFICANT WEATHER AND/OR OBSTRUCTIONS TO VISIBILITY.